COSMOS 2251 DEB, 34946

Orbit data source: Space-Track

COSMOS 2251 DEB, 34946 is space debris in LEO originally from a launch on Wed, 16 Jun 1993 UTC launched from the Plesetsk Missile And Space Complex (PKMTR). The debris from Iridium 33, an American commercial communications satellite, has been tracked extensively since its accidental collision with the defunct Russian satellite Cosmos 2251 in 2009. This event, occurring at high speed in low Earth orbit (LEO), generated thousands of pieces of space debris, significantly increasing the risk of further collisions. The Iridium 33 debris cloud has impacted space traffic management and orbital debris mitigation strategies, making it a subject of ongoing study in space situational awareness.

Loading next visibility...
Identifier
34946, 1993-036ADZ
Orbit
LEO
Country
Flag of CISCIS
Related business
Manufacturer
Unknown
Mission
Spacecraft
Bus & Motor
Unknown
Mass
Unknown
Launch date (UTC)
1993-06-16 (33 years ago)
Launch vehicle
Unknown
Launch site
Plesetsk Missile And Space Complex (PKMTR)
Object type
Payload
Rocket body
Debris
Shape & HBR
Unknown shape, 0.1 m
Radar Cross Section
Small (<0.1 m²)

Expand to show TLE details & history
Last TLE update: 1 day ago

TLE from 1 day ago
0 COSMOS 2251 DEB
1 34946U 93036ADZ 26120.54886484  .00002141  00000-0  41737-3 0  9998
2 34946  74.0219  75.9711 0051219 179.8833 180.2356 14.62825577902382
Epoch: 2026-04-30T13:10Z
TLE epoch observation values (Epoch: 2026-04-30T13:10:21.922Z)
Latitude
0.00002°
Longitude
19.88588°
Altitude
722.886 km
Speed
7.475 km/s
True Right ascension
05h 03m 53s
True Declination
0° 00' 00"
Sunlit
Object was in daylight at epoch
Visualization orbit readout
Latitude
Unknown
Longitude
Unknown
Altitude
Unknown
Speed
Unknown
Apparent Right ascension
Unknown
Apparent Declination
Unknown
Sunlit
N/A
Visualization observer readout
Local Sidereal Time
21:54:15
Azimuth
Unknown
Elevation
Unknown
Doppler factor
Unknown
Orbital elements
Apogee altitude
717.82 km
Perigee altitude
645.501 km
Semi-major axis
7,059.798 km
Eccentricity
0.00512
Inclination
74.0219°
RAAN
75.9711°
Arg. of periapsis
179.8833°
True anomaly
180.2332°
Mean anomaly
180.2356°
Eccentric anomaly
180.2344°
Mean motion
3.65894 °/min
Orbital period
98.39 mins
BSTAR
0.00041737
Loading maneuver chart data...
Computing Atmospheric mass density...

Documentation

Showing up to 5 results
|